Location: Zagreb
(45.8000°N, 16.0000°E)
Time: 03:04:17
(UTC+01:00)

S-56A Canister/Altair - Pass Details

Date: 04 October 2020
Orbit: 633 x 2499 km, 38.9° (Epoch: 25 October)

Event Time Altitude Azimuth Distance (km) Brightness Sun altitude
Rises 20:16:25 0° 283° (WNW) 6,087 13.8 -19.3°
Reaches altitude 10° 20:21:37 10° 272° (W) 4,909 12.8 -20.2°
Maximum altitude 20:31:17 24° 227° (SW) 3,384 11.1 -21.8°
Drops below altitude 10° 20:39:02 10° 178° (S) 3,828 10.9 -23.1°
Enters shadow 20:41:28 - 168° (SSE) 4,290 11.1 -23.5°
